Content
SEND FEEDBACK

Turkmenistan Flag

ASHGABAT, TURKMENISTAN


Home > Asia > Turkmenistan
Elevation: 236 meters     Latitude: 37 58N     Longitude: 058 20E

WEATHER
 
SELECT A DAY
Number of Records: 200,906;   Date Range: 3/15/97 - 3/22/16
 
SHARE

PRINT THIS DATA

[ ← Previous Day ]
WEATHER ALMANAC - 28 APRIL, 2013
[ Next Day → ]
[ °F ]   °C
Weather ElementAverageHighLow
Temperature16.4 °C21.1 °C (5:00 pm)11 °C (6:00 am)
Dewpoint-0.9 °C7 °C (1:00 am)-7 °C (6:30 pm)
Humidity30.4 %59 % (1:00 am)15 % (6:30 pm)
Barometer1026.1 hPa1028.1 hPa (10:00 am)1024 hPa (1:00 am)
Wind Speed13 km/h18 km/h (8:00 am)
Weather ElementAverage
Visibility9.8 km
Wind DirectionWNW (282.9 °)

Weather ElementTotal
Precipitation---
Heating Degree Days2.3 (Base 18.3)
Growing Degree Days6.1 (Base 10)
Averaged from 34 records on 28 April, 2013
WEATHER CONDITIONS BREAKOUT
WIND DIRECTION BREAKOUT
WEATHER BY HOUR - 28 APRIL, 2013
[ °F ]   °C
Local TimeTemperatureDewpointHumidityBarometerVisibilityWind DirectionWind SpeedGust SpeedPrecipitationEventsConditions
1:00 AM15 °C7 °C59 %1024 hPa10 kmWNW (290°)10.8 km/hMostly Cloudy
2:00 AM15 °C5 °C40 %1025.1 hPa9.7 kmNNW (330°)14.3 km/hMostly Cloudy
2:00 AM15 °C5 °C51 %1025.1 hPa10 kmNNW (330°)14.3 km/hMostly Cloudy
3:00 AM13 °C3 °C51 %1025.1 hPa10 kmWNW (300°)14.3 km/hMostly Cloudy
4:00 AM12 °C2 °C51 %1025.1 hPa10 kmWest (280°)14.3 km/hOvercast
5:00 AM13 °C-1 °C38 %1026.1 hPa10 kmWNW (290°)14.3 km/hOvercast
5:00 AM13.3 °C0.6 °C29 %1026.4 hPa9.7 kmWNW (290°)14.3 km/hOvercast
6:00 AM11 °C1 °C50 %1026.1 hPa10 kmWNW (290°)10.8 km/hOvercast
7:00 AM11 °C1 °C50 %1026.1 hPa10 kmWNW (300°)14.3 km/hMostly Cloudy
8:00 AM13 °C-1 °C38 %1027.1 hPa10 kmNW (310°)18 km/hMostly Cloudy
8:00 AM12.8 °C-1.1 °C26 %1027.4 hPa9.7 kmNW (310°)14.3 km/hScattered Clouds
9:00 AM14 °C0 °C38 %1027.1 hPa10 kmNW (310°)18 km/hOvercast
10:00 AM15 °C-2 °C31 %1028.1 hPa10 kmNW (320°)14.3 km/hMostly Cloudy
11:00 AM15.6 °C-1.7 °C19 %1028.1 hPa9.7 kmWest (280°)10.8 km/hScattered Clouds
11:00 AM16 °C-4 °C25 %1027.1 hPa10 kmWest (280°)10.8 km/hMostly Cloudy
12:00 PM17 °C-2 °C27 %1027.1 hPa10 kmWNW (290°)10.8 km/hScattered Clouds
1:00 PM18 °C-2 °C26 %1027.1 hPa10 kmNW (320°)10.8 km/hScattered Clouds
2:00 PM19 °C-1 °C26 %1026.1 hPa10 kmWest (270°)10.8 km/hScattered Clouds
2:00 PM18.9 °C0 °C17 %1026.8 hPa9.7 kmWest (280°)14.3 km/hScattered Clouds
3:00 PM20 °C-2 °C23 %1026.1 hPa10 kmWNW (300°)14.3 km/hScattered Clouds
4:00 PM21 °C-3 °C20 %1025.1 hPa10 kmWNW (300°)14.3 km/hPartly Cloudy
5:00 PM21.1 °C1.1 °C16 %1025.4 hPa9.7 kmWest (280°)18 km/hScattered Clouds
5:00 PM21 °C-3 °C20 %1025.1 hPa10 kmWNW (290°)18 km/hPartly Cloudy
5:30 PM21 °C-3 °C20 %1025.1 hPa10 kmWNW (290°)18 km/hPartly Cloudy
6:00 PM21 °C-4 °C18 %1025.1 hPa10 kmWNW (300°)18 km/hPartly Cloudy
6:30 PM21 °C-7 °C15 %1026.1 hPa10 kmWNW (300°)14.3 km/hClear
7:00 PM20 °C-7 °C16 %1026.1 hPa10 kmWNW (290°)14.3 km/hClear
7:30 PM20 °C-7 °C16 %1026.1 hPa10 kmWest (280°)10.8 km/hClear
8:00 PM17.8 °C2.2 °C24 %1026.4 hPa9.7 kmWest (270°)10.8 km/h
8:00 PM18 °C-5 °C21 %1026.1 hPa10 kmWest (270°)10.8 km/hClear
9:00 PM16 °C-2 °C29 %1026.1 hPa6 kmWSW (240°)7.2 km/hPartly Cloudy
10:00 PM16 °C-1 °C31 %1026.1 hPa10 kmSouth (190°)7.2 km/hPartly Cloudy
11:00 PM13.3 °C0.6 °C30 %1027.4 hPa9.7 kmSouth (170°)7.2 km/h
11:00 PM13 °C1 °C44 %1026.1 hPa10 kmSouth (180°)7.2 km/hClear
Hourly data recorded from UTAA, located 0 kilometers away from Ashgabat, Turkmenistan




STORIES FROM OUR PARTNERS